Regional Weather Roundup
Issued by NWS Mobile, AL

Home | Current Version | Previous Version | Text Only | Print | Product List | Glossary On
Versions: 1 2 3 4 5 6 7 8 9 10 11 12 13 14 15 16 17 18 19 20 21 22 23 24 25 26 27 28 29 30 31 32 33 34 35 36 37 38 39 40 41 42 43 44 45 46 47 48 49 50
000
ASUS44 KMOB 210010
RWRMOB
REGIONAL WEATHER ROUNDUP
NATIONAL WEATHER SERVICE MOBILE AL
700 PM CDT MON OCT 20 2014

NOTE: "FAIR" INDICATES FEW OR NO CLOUDS BELOW 12,000 FEET WITH NO
      SIGNIFICANT WEATHER AND/OR OBSTRUCTIONS TO VISIBILITY.

  * THESE STATIONS ARE PART OF THE UNIVERSITY OF SOUTH ALABAMA
    MESONET AND ARE NOT UNDER NWS OR FAA QUALITY CONTROL.

ALZ061>064-210100-
COASTAL ALABAMA

CITY           SKY/WX    TMP DP  RH WIND       PRES   REMARKS
MOBILE REG APT PTCLDY    62  55  77 N3        30.00S
6HR MIN TEMP:  62; 6HR MAX TEMP:  79;

BROOKLEY FIELD CLEAR     62  57  83 CALM      30.01R
6HR MIN TEMP:  62; 6HR MAX TEMP:  78;

USA CAMPUS*      N/A     63  54  72 CALM      30.00R
DOG RIVER*     NOT AVBL


CITY           SKY/WX    TMP DP  RH WIND       PRES   REMARKS
MOUNT VERNON*    N/A     59  55  88 CALM      30.01R
SARALAND*      NOT AVBL
BAY MINETTE*   NOT AVBL
LOXLEY*          N/A     63  54  72 N3        30.00R
ROBERTSDALE*     N/A     63  54  72 CALM      29.99R
FAIRHOPE*        N/A     63  55  77 CALM      29.99R
ELBERTA*         N/A     64  57  77 CALM      29.99R
FOLEY*           N/A     61  55  82 CALM      29.98R
GRAND BAY*       N/A     64  55  72 CALM      29.98R
DAUPHIN ISLND* NOT AVBL
BON SCOUR NWR* NOT AVBL
GULF SHORES    PTCLDY    63  59  86 CALM      29.99S

$$

ALZ051>060-210100-
INTERIOR SOUTHWEST AND SOUTH CENTRAL ALABAMA

CITY           SKY/WX    TMP DP  RH WIND       PRES   REMARKS
GREENVILLE     CLEAR     62  55  77 CALM      30.01R
6HR MIN TEMP:  62; 6HR MAX TEMP:  78;

EVERGREEN      CLEAR     63  54  72 NW3       30.01R
6HR MIN TEMP:  62; 6HR MAX TEMP:  79;

CASTLEBERRY*   NOT AVBL
ATMORE*          N/A     63  52  67 CALM      30.01R
DIXIE*           N/A     64  54  68 CALM      29.98R
ANDALUSIA/OPP  PTCLDY    67  55  65 CALM      30.00R
6HR MIN TEMP:  67; 6HR MAX TEMP:  82;

ANDALUSIA*       N/A     66  54  63 VRB3      29.99S
FLORALA APT    CLEAR     63  56  78 CALM      30.01S
6HR MIN TEMP:  63; 6HR MAX TEMP:  80; 6HR PCP: TRACE;

FLORALA*         N/A     61  55  82 CALM      29.98R

$$

FLZ001>006-210100-
WESTERN FLORIDA PANHANDLE

CITY           SKY/WX    TMP DP  RH WIND       PRES   REMARKS
PENSACOLA      PTCLDY    70  59  68 SW3       29.99R
6HR MIN TEMP:  69; 6HR MAX TEMP:  78;

NAS PENSACOLA  PTCLDY    67  60  78 SW3       29.98S
6HR MIN TEMP:  65; 6HR MAX TEMP:  78;

MILTON         PTCLDY    64  55  72 N3        29.99R
6HR MIN TEMP:  63; 6HR MAX TEMP:  79;

WHTNG S FIELD  PTCLDY    68  55  63 CALM      29.99R
6HR MIN TEMP:  68; 6HR MAX TEMP:  81;



CITY           SKY/WX    TMP DP  RH WIND       PRES   REMARKS
WALNUT HILL*   NOT AVBL
JAY*             N/A     64  54  68 CALM      30.00R
DUKE FIELD     PTCLDY    69  57  66 CALM      29.98S
CRESTVIEW      CLEAR     67  56  67 N3        30.00R
6HR MIN TEMP:  67; 6HR MAX TEMP:  81;

VALPARAISO     PTCLDY    71  62  75 W1        29.98S
6HR MIN TEMP:  71; 6HR MAX TEMP:  78;

DESTIN         CLEAR     74  63  68 CALM      29.98S
6HR MIN TEMP:  74; 6HR MAX TEMP:  78;


$$

MSZ076-079-210100-
INTERIOR SOUTHEAST MISSISSIPPI

CITY           SKY/WX    TMP DP  RH WIND       PRES   REMARKS
LEAKESVILLE*   NOT AVBL
AGRICOLA*      NOT AVBL

$$

MARINE OBSERVATIONS

STATION/POSITION TIME  TEMP    WIND        PRES    WAVE
                       AIR SEA DIR/SP/G            HT/PER
                 (UTC) (F)     (DEG/KT/KT) (MB)    (FT/S)
PASCAGOULA       0000   72     280/  2/  3 1015.6R
PETIT BOIS ISLND 0000   73     290/  5/  6 1015.9R
GRAND BAY        2300   72     250/  5     1016.0S
KATRINA CUT      2300   73        CALM     1015.9S
CEDAR POINT      2300   71     240/  5     1015.9R
E DAUPHIN ISLAND 0000   72     240/  2/  3 1015.9R
MIDDLE BAY LIGHT 2300   73     240/  5     1015.6R
USCG MOBILE BAY  0000   72 74   CALM  /  1 1014.4S
STATE DOCKS      0000   74 76              1015.5S
MEAHER PARK      2300   71      40/  1     1015.6R
WEEKS BAY        2300   71                   N/A
FORT MORGAN      0000   73     320/  4/  5 1015.1S
12 S ORANGE BCH  0000   74 79  270/  2/  4 1015.1R   1
PENSACOLA BAY    0000   75 75  230/  1/  4 1015.6S
64 S DAUPHIN ISL 2216   75 80   20/  6/  8 1015.3F   1/ 5
67 S FORT MORGAN 2300   75                 1014.6S

$$

SELECTED LOCATIONS ACROSS THE REGION

CITY           SKY/WX    TMP DP  RH WIND       PRES   REMARKS
NEW ORLEANS    PTCLDY    70  54  56 N3        30.00R
GULFPORT       PTCLDY    67  54  63 CALM      29.99R
PASCAGOULA AP  CLEAR     60  55  83 CALM      30.00R
PASCAGOULA*      N/A     64  57  77 CALM      29.99R
HATTIESBURG    PTCLDY    63  55  75 CALM      30.02R
LAUREL         PTCLDY    61  54  77 CALM      30.03S
MERIDIAN       CLEAR     61  54  77 CALM      30.02R
JACKSON        PTCLDY    63  52  67 N3        30.03R
MONTGOMERY     CLEAR     63  50  62 CALM      30.00S
TROY           CLEAR     61  54  77 CALM      30.01R
KINSTON*       NOT AVBL
GENEVA*          N/A     61  54  77 CALM      30.01R
ASHFORD*         N/A     66  54  63 VRB3      29.99S
DOTHAN         CLEAR     62  57  83 CALM      30.03R
PANAMA CITY    PTCLDY    70  61  73 W3        29.97R

$$




USA.gov is the U.S. government's official web portal to all federal, state and local government web resources and services.